FW9978 Weather Reports


time (UTC)temp
C
wind
direction
speed
KPH
gust
KPH
rain 1hr
cm
rain 24hr
cm
rain mn
cm
humidity
%
barometer
mb
20260509134503 22 172 0.0 6.4 0.00 0.00 0.00 93 1009.4
20260509133115 22 184 0.0 4.8 0.00 0.00 0.00 93 1009.3
20260509131517 22 161 0.0 0.0 0.00 0.00 0.00 93 1008.6
20260509130133 22 161 3.2 6.4 0.00 0.00 0.00 93 1008.2
20260509124526 22 134 1.6 11.3 0.00 0.00 0.00 93 1008.0
20260509123029 21 145 4.8 16.1 0.00 0.00 0.00 93 1007.8
20260509121538 21 150 9.7 16.1 0.00 0.00 0.00 93 1007.6
20260509120033 21 140 8.0 14.5 0.00 0.00 0.00 93 1007.7
20260509114527 21 123 6.4 22.5 0.00 0.00 0.00 92 1007.7
20260509113029 21 121 4.8 12.9 0.00 0.00 0.00 92 1007.7
20260509111538 21 130 6.4 12.9 0.00 0.00 0.00 92 1007.6
20260509104554 21 131 1.6 9.7 0.00 0.00 0.00 91 1008.1
20260509103032 21 103 0.0 0.0 0.00 0.00 0.00 91 1008.4
20260509101543 21 103 0.0 0.0 0.00 0.00 0.00 91 1008.5
20260509100044 21 104 0.0 3.2 0.00 0.00 0.00 91 1008.7
20260509094528 21 104 0.0 4.8 0.00 0.00 0.00 91 1008.6
20260509093042 21 97 1.6 4.8 0.00 0.00 0.00 91 1008.7
20260509091600 21 92 0.0 4.8 0.00 0.00 0.00 91 1008.6
20260509090113 21 92 0.0 3.2 0.00 0.00 0.00 91 1009.2
20260509084619 21 152 0.0 0.0 0.00 0.00 0.00 90 1009.3
20260509083026 21 152 0.0 4.8 0.00 0.00 0.00 90 1009.3
20260509081539 21 134 0.0 3.2 0.00 0.00 0.00 90 1009.1
20260509080012 21 134 0.0 0.0 0.00 0.00 0.00 90 1009.3
20260509074535 21 134 0.0 3.2 0.00 0.00 0.00 90 1009.6
20260509073037 21 128 0.0 4.8 0.00 0.00 0.00 90 1009.4
20260509071540 21 153 1.6 9.7 0.00 0.00 0.00 90 1009.0
20260509070059 21 123 0.0 0.0 0.00 0.00 0.00 90 1009.7
20260509064538 21 120 0.0 0.0 0.00 0.00 0.00 89 1009.6
20260509063039 22 120 0.0 1.6 0.00 0.00 0.00 89 1009.4
20260509061538 22 161 0.0 0.0 0.00 0.00 0.00 89 1009.0
20260509060042 21 161 0.0 0.0 0.00 0.00 0.00 89 1009.1
20260509054539 21 161 0.0 0.0 0.00 0.00 0.00 89 1009.1
20260509053134 21 162 0.0 0.0 0.00 0.00 0.00 88 1009.1
20260509051547 21 162 0.0 0.0 0.00 0.00 0.00 88 1008.8
20260509050051 21 157 0.0 0.0 0.00 0.00 0.00 88 1009.1
20260509044531 21 159 0.0 0.0 0.00 0.00 0.00 88 1009.2
20260509043042 21 165 0.0 0.0 0.00 0.00 0.00 88 1008.9
20260509041548 22 165 0.0 0.0 0.00 0.00 0.00 87 1008.9
20260509040112 22 164 0.0 0.0 0.00 0.00 0.00 87 1008.5
20260509034632 22 169 1.6 11.3 0.00 0.00 0.00 87 1008.3
20260509033104 22 150 0.0 4.8 0.00 0.00 0.00 87 1008.2
20260509031505 22 131 0.0 6.4 0.00 0.00 0.00 86 1007.9
20260509030116 22 155 0.0 8.0 0.00 0.00 0.00 86 1007.9
20260509024556 22 165 1.6 8.0 0.00 0.00 0.00 86 1007.6
20260509023005 22 118 0.0 6.4 0.00 0.00 0.00 85 1007.6
20260509021520 22 167 0.0 8.0 0.00 0.00 0.00 85 1007.4
20260509020005 22 148 0.0 6.4 0.00 0.00 0.00 85 1007.3
20260509014605 22 153 1.6 8.0 0.00 0.00 0.00 84 1007.4
20260509013118 23 181 0.0 3.2 0.00 0.00 0.00 84 1007.3
20260509011528 23 181 0.0 3.2 0.00 0.00 0.00 83 1007.2
20260509010045 23 181 0.0 1.6 0.00 0.00 0.00 83 1007.2
20260509004539 23 178 1.6 4.8 0.00 0.00 0.00 83 1007.3
20260509003111 24 169 1.6 8.0 0.00 0.00 0.00 83 1007.2
20260509001547 24 173 1.6 6.4 0.00 0.00 0.00 82 1007.3
20260509000104 25 205 1.6 11.3 0.00 0.00 0.00 82 1007.4
20260508234535 25 149 0.0 6.4 0.00 0.00 0.00 82 1007.1
20260508233038 25 177 1.6 11.3 0.00 0.00 0.00 82 1007.4
20260508231601 25 83 3.2 9.7 0.00 0.00 0.00 82 1007.3
20260508230113 25 167 4.8 12.9 0.00 0.00 0.00 82 1007.5
20260508224544 25 228 4.8 11.3 0.00 0.00 0.00 83 1007.8
20260508223037 25 215 3.2 8.0 0.00 0.00 0.00 83 1007.8
20260508221543 24 220 1.6 8.0 0.00 0.00 0.00 84 1008.1
20260508220040 23 169 3.2 6.4 0.00 0.00 0.00 83 1008.4
20260508214533 23 159 1.6 4.8 0.00 0.00 0.00 84 1008.5
20260508213039 23 137 3.2 6.4 0.00 0.00 0.00 83 1008.6
20260508211545 23 128 0.0 6.4 0.00 0.00 0.00 84 1008.8
20260508210047 23 236 1.6 8.0 0.00 0.00 0.00 84 1009.0
20260508204534 23 235 3.2 8.0 0.00 0.00 0.00 84 1009.1
20260508203047 23 209 4.8 11.3 0.00 0.00 0.00 84 1009.1
20260508201534 23 192 3.2 9.7 0.00 0.00 0.00 85 1009.2
20260508200045 23 129 3.2 8.0 0.00 0.00 0.00 85 1009.3
20260508194532 22 117 4.8 12.9 0.00 0.00 0.00 85 1009.6
20260508193036 22 142 4.8 11.3 0.00 0.00 0.00 86 1009.6
20260508191538 22 116 4.8 9.7 0.00 0.00 0.00 86 1010.0
20260508190046 21 146 1.6 6.4 0.00 0.00 0.00 86 1010.4
20260508184526 21 109 0.0 4.8 0.00 0.00 0.00 86 1010.5
20260508183035 21 104 1.6 4.8 0.00 0.00 0.00 86 1010.5
20260508181544 20 123 0.0 3.2 0.00 0.00 0.00 87 1011.0
20260508180048 20 81 1.6 6.4 0.00 0.00 0.00 86 1011.2
20260508174557 20 77 1.6 6.4 0.00 0.00 0.00 86 1011.3
20260508173053 19 24 0.0 4.8 0.00 0.00 0.00 87 1011.6
20260508171558 19 57 1.6 8.0 0.00 0.00 0.00 87 1012.0
20260508170059 19 52 3.2 6.4 0.00 0.00 0.00 87 1012.1
20260508164607 18 44 1.6 6.4 0.00 0.00 0.00 87 1012.4
20260508163038 18 59 1.6 8.0 0.00 0.00 0.00 87 1012.5
20260508161514 18 49 1.6 8.0 0.00 0.00 0.00 87 1012.4
20260508160004 18 54 3.2 6.4 0.00 0.00 0.00 87 1012.7
20260508154525 18 78 1.6 6.4 0.00 0.00 0.00 87 1013.0
20260508153027 18 114 3.2 9.7 0.00 0.00 0.00 87 1012.8
20260508151534 18 58 3.2 8.0 0.00 0.00 0.00 87 1012.8
20260508150033 17 45 0.0 0.0 0.00 0.00 0.00 87 1013.0
20260508144515 17 44 0.0 0.0 0.00 0.00 0.00 87 1013.0
20260508143004 17 44 0.0 4.8 0.00 0.00 0.00 87 1013.2
20260508141513 17 44 1.6 8.0 0.00 0.00 0.00 87 1013.1
20260508140128 17 54 0.0 0.0 0.00 0.00 0.00 88 1012.8